This demonstration page uses our WeatherBlox Daily Observations layout. Learn more.

Left ArrowRight Arrow

44.8408, -93.29828

Hourly Observations for February 8, 2022

Temp ( °F °C ) Dew Point ( °F °C ) Humidity (%) Winds ( mph kmh ) Pressure ( in mb ) Visibility ( mi km ) Precip ( " mm )
12:53 am 00:53 Partly Cloudy 14 -10 6 -14.4 71 71 S 7 11 29.95 1014 10 16 0.00 0.00
1:53 am 01:53 Partly Cloudy 14 -10 7 -13.9 73 73 SE 9 15 29.91 1013 10 16 0.00 0.00
2:53 am 02:53 Mostly Clear 14 -10 7 -13.9 73 73 SE 9 15 29.87 1012 10 16 0.00 0.00
3:53 am 03:53 Mostly Clear 15 -9.4 8 -13.3 74 74 SE 9 15 29.83 1010 10 16 0.00 0.00
4:53 am 04:53 Mostly Clear 16 -8.9 9 -12.8 74 74 SE 9 15 29.80 1009 10 16 0.00 0.00
5:53 am 05:53 Partly Cloudy 16 -8.9 10 -12.2 77 77 SE 8 13 29.77 1008 10 16 0.00 0.00
6:53 am 06:53 Partly Cloudy 15 -9.4 9 -12.8 77 77 SE 6 9 29.76 1008 10 16 0.00 0.00
7:53 am 07:53 Partly Cloudy 16 -8.9 11 -11.7 80 80 SE 5 7 29.75 1008 9 14 0.00 0.00
8:53 am 08:53 Mostly Cloudy 18 -7.8 14 -10 84 84 ESE 3 6 29.77 1008 9 14 0.00 0.00
9:53 am 09:53 Mostly Cloudy 23 -5 15 -9.4 72 72 SW 5 7 29.78 1009 10 16 0.00 0.00
10:53 am 10:53 Mostly Cloudy 26 -3.3 17 -8.3 69 69 SW 6 9 29.78 1008 9 14 0.00 0.00
11:53 am 11:53 Mostly Cloudy 28 -2.2 19 -7.2 69 69 WSW 7 11 29.78 1009 9 14 0.00 0.00
12:53 pm 12:53 Mostly Cloudy 31 -0.6 21 -6.1 67 67 SSW 3 6 29.75 1008 10 16 0.00 0.00
1:53 pm 13:53 Mostly Cloudy 34 1.1 23 -5 64 64 SW 6 9 29.74 1007 10 16 0.00 0.00
2:53 pm 14:53 Partly Cloudy 38 3.3 26 -3.3 62 62 SW 6 9 29.72 1006 10 16 0.00 0.00
3:53 pm 15:53 Mostly Sunny 43 6.1 29 -1.7 58 58 W 16 26 29.70 1006 10 16 0.00 0.00
4:53 pm 16:53 Mostly Sunny 41 5 28 -2.2 60 60 W 14 22 29.71 1006 10 16 0.00 0.00
5:53 pm 17:53 Mostly Clear 39 3.9 28 -2.2 65 65 W 13 20 29.71 1006 10 16 0.00 0.00
6:53 pm 18:53 Cloudy 38 3.3 29 -1.7 70 70 W 14 22 29.71 1006 10 16 0.00 0.00
7:06 pm 19:06 Cloudy 38 3.3 29 -1.7 70 70 W 16 26 29.71 1006 10 16 0.00 0.00
7:53 pm 19:53 Cloudy 37 2.8 30 -1.1 76 76 WNW 18 30 29.72 1006 10 16 0.00 0.00
8:53 pm 20:53 Cloudy 37 2.8 30 -1.1 76 76 W 12 19 29.70 1006 10 16 0.00 0.00
9:53 pm 21:53 Cloudy 36 2.2 30 -1.1 79 79 W 14 22 29.69 1005 10 16 0.00 0.00
10:53 pm 22:53 Cloudy 36 2.2 30 -1.1 79 79 W 13 20 29.68 1005 10 16 0.00 0.00
11:53 pm 23:53 Cloudy 36 2.2 30 -1.1 79 79 W 12 19 29.67 1005 10 16 0.00 0.00

Powered by AerisWeather